Showing default

COSMOS 2249, 22650

Orbit data source: Space-Track

COSMOS 2249, 22650 is a payload satellite owned by VKS (CIS) in LEO that was launched on Tue, 11 May 1993 UTC via a TSIKLON-3 launch vehicle from the Plesetsk Missile And Space Complex (PKMTR). Payload-class satellites include a variety of spacecraft equipped with specific instruments for various scientific and technological missions. These include communications satellites like Starlink; space stations such as the ISS; scientific satellites like the Hubble; Earth observation satellites from companies like Planet Labs, Umbra, and HawkEye 360; GPS; miniature CubeSats for education and research; and military/defense satellites.

Loading next visibility...
Identifier
22650, 1993-030E
Orbit
LEO
Country
Flag of CISCIS
Related business
Manufacturer
NPO PM
Mission
Defense Communications
Bus & Motor
STRELA-3, Unknown motor
Mass
225 kg wet, 225 kg dry
Launch date (UTC)
1993-05-11 (32 years ago)
Launch vehicle
TSIKLON-3
Launch site
Plesetsk Missile And Space Complex (PKMTR)
Object type
Payload
Rocket body
Debris
Shape & HBR
Cyl, 0.8 m
Radar Cross Section
1.257 m², Medium (>0.1 m² and < 1m²)

Expand to show TLE details & history
Last TLE update: 21 hours ago

TLE from 21 hours ago
0 COSMOS 2249
1 22650U 93030E   25257.46699969  .00000008  00000-0 -17209-4 0  9991
2 22650  82.5869 139.4935 0006764 198.7871 334.7103 12.63177686491218
Epoch: 2025-09-14T11:12Z
TLE epoch observation values (Epoch: 2025-09-14T11:12:28.773Z)
Latitude
6.40924°
Longitude
156.85473°
Altitude
1,407.223 km
Speed
7.159 km/s
True Right ascension
21h 14m 38s
True Declination
6° 22' 28"
Sunlit
Object was in full shadow at epoch
Visualization orbit readout
Latitude
Unknown
Longitude
Unknown
Altitude
Unknown
Speed
Unknown
Apparent Right ascension
Unknown
Apparent Declination
Unknown
Sunlit
N/A
Visualization observer readout
Local Sidereal Time
00:32:52
Azimuth
Unknown
Elevation
Unknown
Doppler factor
Unknown
Orbital elements
Apogee altitude
1,412.441 km
Perigee altitude
1,401.909 km
Semi-major axis
7,785.312 km
Eccentricity
0.00068
Inclination
82.5869°
RAAN
139.4935°
Arg. of periapsis
198.7871°
True anomaly
334.67716°
Mean anomaly
334.7103°
Eccentric anomaly
334.69373°
Mean motion
3.15958 °/min
Orbital period
113.94 mins
BSTAR
-0.000017209
Loading maneuver chart data...
Computing Atmospheric mass density...
Loading historical data...
Loading historical data...
Loading historical data...
Loading historical data...
Loading historical data...
Loading historical data...
Loading historical data...

Documentation

Showing up to 5 results
|